Чегем 1-й

Россия / Кабардино-Балкарская Республика     43°36′47″N   43°43′38″E
темп.,
°C
ветер,
м/с
пор.,
м/с
влажн.,
%
обл.,
%
осадки,
мм/ч
давл.,
гПа
погр.,
м
18 октября, пн
пн1800:00+14юз2282100 0.3 101312
03:00+13зсз228699 0.3 101419
06:00+13юз1186100 0.4 101412
09:00+13ююв1194100 3.7 101569
12:00+13ссз2297100 15.5 1016138
15:00+14юз1290100 20.6 1016141
18:00+13юз2384100 0.9 101748
21:00+13юз348799 2.1 101772
19 октября, вт
вт1900:00+13з2386100 0.5 101855
03:00+12ююв1180100 0.5 101819
06:00+12ю1183100 0.1 101816
09:00+12всв228375 0.1 1019138
12:00+14всв337098 0.1 1017860
15:00+11св3482100 0.1 1018541
18:00+9ссв2488100 1.0 1020452
21:00+8ссз3988100 4.3 10221180
20 октября, ср
ср2000:00+7ссз497797 1.4 1024949
03:00+7ссз4779100 1.5 1025776
06:00+6сз3769100 0.1 1026640
09:00+6ююв126292 0.1 1028875
12:00+9юв115932 0.0 1026971
15:00+10з135595 0.0 10261168
18:00+9св116294 0.0 102930
21:00+6вюв116165 0.0 103019
21 октября, чт
чт2100:00+5ююз11665 0.0 103010
03:00+4ю11705 0.0 102910
06:00+4ююз22731 0.0 103015
09:00+8вюв12590 0.0 1030308
12:00+12в225267 0.0 1027724
15:00+12в235297 0.0 1026725
18:00+8юв11655 0.0 102611
21:00+7ююз11700 0.0 102611
22 октября, пт
пт2200:00+7ююз11720 0.0 102411
03:00+7ю11700 0.0 102310
06:00+7ююз11670 0.0 102310
09:00+12всв11540 0.0 1022140
12:00+16всв22480 0.0 1021440
15:00+17в22470 0.0 1020486
18:00+12ююз11620 0.0 102110
21:00+11юз11680 0.0 102111